Home > Weather > Surgut > Past weeks

Flag for Russia Weather for the Past 2 Weeks in Surgut, Russia

Now
45 °F

Clear.


Feels Like: 43 °F
Forecast: 36 / 59 °F
Wind: 3 mph from Southwest

Location: Surgut Airport

Current Time: May 3, 2016 at 9:55:13 PM

Latest Report: May 3, 2016 at 9:30 PM


Visibility: 4 mi

Pressure: 30.12 "Hg

Humidity: 46%

Dew Point: 25 °F

Location of SurgutLocation

Historic Weather in Surgut — Graph

°F

Surgut Temperature Yesterday

Maximum temperature yesterday: 37 °F (at 5:00 PM)
Minimum temperature yesterday: 25 °F (at 2:30 AM)
Average temperature yesterday: 30 °F

High & Low Weather Summary for the Past Weeks

 TemperatureHumidityPressure
High61 °F (Apr 23, 3:30 PM)100% (Apr 18, 8:30 PM)30.39 "Hg (Apr 18, 8:30 PM)
Low23 °F (May 1, 4:00 AM)25% (Apr 29, 4:30 PM)29.65 "Hg (Apr 18, 8:00 PM)
Average39 °F72%30.06 "Hg
* Reported Apr 18 8:00 PM — May 3 8:30 PM, Surgut, Weather by CustomWeather, © 2016

Note: Actual official high and low records may vary slightly from our data, if they occured in-between our weather recording intervals... More about our weather records

Advertising

Surgut Weather History for the Previous 24 Hours

Scroll right to see more
 ConditionsComfort  
Time TempWeatherWind HumidityBarometerVisibility
8:30 PM
Tue, May 3
50 °FClear.6 mph35%30.12 "Hg4 mi
8:00 PM52 °FClear.8 mph32%30.12 "Hg4 mi
7:30 PM54 °FClear.10 mph30%30.12 "Hg4 mi
7:00 PM54 °FClear.10 mph30%30.12 "Hg4 mi
6:30 PM54 °FClear.15 mph30%30.12 "Hg4 mi
6:00 PM55 °FClear.15 mph28%30.12 "Hg4 mi
5:30 PM55 °FClear.13 mph28%30.12 "Hg4 mi
5:00 PM55 °FClear.15 mph31%30.12 "Hg4 mi
4:30 PM55 °FClear.17 mph28%30.15 "Hg4 mi
4:00 PM55 °FClear.20 mph28%30.15 "Hg4 mi
3:30 PM55 °FClear.17 mph28%30.12 "Hg4 mi
3:00 PM55 °FClear.17 mph26%30.15 "Hg4 mi
2:30 PM55 °FClear.20 mph26%30.15 "Hg4 mi
2:00 PM55 °FClear.22 mph26%30.15 "Hg4 mi
1:30 PM55 °FClear.20 mph28%30.15 "Hg4 mi
1:00 PM54 °FClear.20 mph28%30.15 "Hg4 mi
12:30 PM52 °FClear.22 mph30%30.15 "Hg4 mi
12:00 PM52 °FClear.22 mph28%30.15 "Hg4 mi
11:30 AM52 °FClear.17 mph30%30.15 "Hg4 mi
11:00 AM50 °FClear.17 mph30%30.15 "Hg4 mi
10:30 AM48 °FClear.17 mph34%30.15 "Hg4 mi
10:00 AM48 °FClear.15 mph34%30.18 "Hg4 mi
9:30 AM48 °FClear.15 mph37%30.18 "Hg4 mi
8:30 AM45 °FClear.13 mph42%30.18 "Hg4 mi
8:00 AM45 °FClear.10 mph42%30.18 "Hg4 mi
7:30 AM41 °FClear.10 mph49%30.21 "Hg4 mi
6:30 AM37 °FClear.8 mph56%30.21 "Hg4 mi
6:00 AM36 °FClear.10 mph60%30.21 "Hg4 mi
5:30 AM34 °FClear.8 mph65%30.21 "Hg4 mi
5:00 AM34 °FClear.10 mph65%30.21 "Hg4 mi
4:30 AM32 °FClear.8 mph64%30.21 "Hg4 mi
4:00 AM32 °FClear.10 mph64%30.21 "Hg4 mi
3:30 AM32 °FClear.10 mph64%30.21 "Hg4 mi
3:00 AM32 °FClear.10 mph64%30.21 "Hg4 mi
2:00 AM32 °FClear.6 mph64%30.24 "Hg4 mi
1:30 AM32 °FClear.6 mph60%30.24 "Hg4 mi
1:00 AM32 °FClear.6 mph64%30.24 "Hg4 mi
12:30 AM32 °FClear.6 mph64%30.24 "Hg4 mi
12:00 AM32 °FClear.3 mph64%30.24 "Hg4 mi
11:30 PM
Mon, May 2
32 °FClear.3 mph60%30.27 "Hg4 mi
11:00 PM32 °FClear.3 mph64%30.27 "Hg4 mi
10:30 PM32 °FClear.3 mph55%30.27 "Hg4 mi
10:00 PM30 °FClear.3 mph59%30.30 "Hg4 mi
9:30 PM32 °FClear.1 mph55%30.30 "Hg4 mi
9:00 PM30 °FClear.1 mph59%30.30 "Hg4 mi
Weather by CustomWeather, © 2016

See weather overviewHow to use our weather pages